Weather History for Griffin-Spaldg Cnty AP, Griff, GA

Change the Weather History Date:

Friday, October 4, 2013

  Actual Average (KFFC) Record (KFFC)
Temperature  
Mean Temperature 72 °F 65 °F  
Max Temperature 84 °F 78 °F 87 °F (2005)
Min Temperature 60 °F 53 °F 42 °F (2011)
Degree Days  
Heating Degree Days 0 2  
Month to date heating degree days 8  
Since 1 July heating degree days 21  
Cooling Degree Days 7 3  
Month to date cooling degree days 12  
Year to date cooling degree days 1620  
Growing Degree Days 22 (Base 50)    
Moisture  
Dew Point -    
Average Humidity    
Maximum Humidity    
Minimum Humidity    
Precipitation  
Precipitation 0.00 in 0.14 in 1.17 in (1999)
Month to date precipitation 0.55  
Snow  
Snow 0.00 in - - ()
Month to date snowfall  
Since 1 July snowfall  
Since 1 September snowfall  
Snow Depth -    
Sea Level Pressure  
Sea Level Pressure 30.14 in    
Wind  
Wind Speed 1 mph (ESE)    
Max Wind Speed 6 mph    
Max Gust Speed -    
Visibility 9 miles    
Events      
T = Trace of Precipitation, MM = Missing Value Source: NWS Daily Summary

Daily Weather History Graph

Daily Weather History Graph

Search for Another Location

Airport:

Trip Planner

Search our weather history database for the weather conditions in past years. The results will help you decide how hot, cold, wet, or windy it might be!

Date:

Astronomy

Oct. 04, 2013 Rise Set
Actual Time 7:33 AM EDT 7:17 PM EDT
Civil Twilight 7:08 AM EDT 7:42 PM EDT
Nautical Twilight 6:40 AM EDT 8:10 PM EDT
Astronomical Twilight 6:11 AM EDT 8:39 PM EDT
Moon 7:07 AM EDT (10/4) 7:01 PM EDT (10/4)
Length of Visible Light 12h 33m
Length of Day
11h 43m
Waning Crescent, 0% of the Moon is Illuminated
Oct 4
Waning Crescent
Oct 4
New
Oct 11
First Quarter
Oct 18
Full
Oct 26
Last Quarter

Hourly Weather History & Observations

Time (EDT) Temp. Dew Point Humidity Pressure Visibility Wind Dir Wind Speed Gust Speed Precip Events Conditions
12:35 AM 62.6 °F - N/A% 30.13 in 10.0 mi Calm Calm - N/A   Clear
12:55 AM 62.6 °F - N/A% 30.14 in 10.0 mi Calm Calm - N/A   Scattered Clouds
1:15 AM 62.6 °F - N/A% 30.13 in 10.0 mi Calm Calm - N/A   Scattered Clouds
1:35 AM 62.6 °F - N/A% 30.13 in 10.0 mi Calm Calm - N/A   Scattered Clouds
1:55 AM 62.6 °F - N/A% 30.13 in 10.0 mi Calm Calm - N/A   Clear
2:15 AM 62.6 °F - N/A% 30.13 in 10.0 mi Calm Calm - N/A   Scattered Clouds
2:35 AM 62.6 °F - N/A% 30.13 in 10.0 mi Calm Calm - N/A   Clear
2:55 AM 62.6 °F - N/A% 30.12 in 10.0 mi Calm Calm - N/A   Clear
3:15 AM 62.6 °F - N/A% 30.12 in 7.0 mi Calm Calm - N/A   Clear
3:35 AM 62.6 °F - N/A% 30.12 in 7.0 mi Calm Calm - N/A   Clear
3:55 AM 62.6 °F - N/A% 30.12 in 7.0 mi Calm Calm - N/A   Clear
4:15 AM 62.6 °F - N/A% 30.11 in 7.0 mi Calm Calm - N/A   Clear
4:35 AM 62.6 °F - N/A% 30.11 in 7.0 mi Calm Calm - N/A   Clear
4:55 AM 62.6 °F - N/A% 30.11 in 7.0 mi Calm Calm - N/A   Scattered Clouds
5:15 AM 60.8 °F - N/A% 30.11 in 7.0 mi Calm Calm - N/A   Scattered Clouds
5:35 AM 60.8 °F - N/A% 30.12 in 7.0 mi Calm Calm - N/A   Clear
5:55 AM 60.8 °F - N/A% 30.12 in 7.0 mi Calm Calm - N/A   Clear
6:15 AM 60.8 °F - N/A% 30.13 in 7.0 mi Calm Calm - N/A   Clear
6:35 AM 60.8 °F - N/A% 30.14 in 5.0 mi Calm Calm - N/A   Clear
6:55 AM 60.8 °F - N/A% 30.14 in 5.0 mi Calm Calm - N/A   Clear
7:15 AM 60.8 °F - N/A% 30.14 in 7.0 mi Calm Calm - N/A   Clear
7:35 AM 60.8 °F - N/A% 30.15 in 5.0 mi Calm Calm - N/A   Clear
7:55 AM 60.8 °F - N/A% 30.15 in 4.0 mi Calm Calm - N/A   Clear
8:35 AM 62.6 °F - N/A% 30.17 in 7.0 mi Calm Calm - N/A   Clear
8:55 AM 69.8 °F - N/A% 30.17 in 10.0 mi Calm Calm - N/A   Clear
9:15 AM 69.8 °F - N/A% 30.17 in 10.0 mi Calm Calm - N/A   Clear
9:35 AM 71.6 °F - N/A% 30.18 in 10.0 mi Calm Calm - N/A   Clear
9:55 AM 73.4 °F - N/A% 30.18 in 10.0 mi Calm Calm - N/A   Clear
10:15 AM 73.4 °F - N/A% 30.18 in 10.0 mi Calm Calm - N/A   Clear
10:35 AM 77.0 °F - N/A% 30.19 in 10.0 mi SE 3.5 mph - N/A   Clear
10:55 AM 77.0 °F - N/A% 30.19 in 10.0 mi ESE 3.5 mph - N/A   Clear
11:15 AM 78.8 °F - N/A% 30.19 in 10.0 mi ESE 3.5 mph - N/A   Clear
11:35 AM 78.8 °F - N/A% 30.19 in 10.0 mi Calm Calm - N/A   Clear
11:55 AM 78.8 °F - N/A% 30.19 in 10.0 mi South 3.5 mph - N/A   Clear
12:15 PM 80.6 °F - N/A% 30.18 in 10.0 mi Calm Calm - N/A   Clear
12:35 PM 80.6 °F - N/A% 30.18 in 10.0 mi SSE 4.6 mph - N/A   Clear
12:55 PM 82.4 °F - N/A% 30.17 in 10.0 mi South 5.8 mph - N/A   Clear
1:15 PM 82.4 °F - N/A% 30.17 in 10.0 mi Calm Calm - N/A   Clear
1:35 PM 82.4 °F - N/A% 30.16 in 10.0 mi South 4.6 mph - N/A   Clear
1:55 PM 82.4 °F - N/A% 30.15 in 10.0 mi SSE 5.8 mph - N/A   Scattered Clouds
2:15 PM 82.4 °F - N/A% 30.15 in 10.0 mi East 3.5 mph - N/A   Mostly Cloudy
2:35 PM 82.4 °F - N/A% 30.14 in 10.0 mi Calm Calm - N/A   Scattered Clouds
2:55 PM 84.2 °F - N/A% 30.13 in 10.0 mi Calm Calm - N/A   Mostly Cloudy
3:15 PM 82.4 °F - N/A% 30.12 in 10.0 mi Calm Calm - N/A   Mostly Cloudy
3:35 PM 84.2 °F - N/A% 30.12 in 10.0 mi NNE 3.5 mph - N/A   Scattered Clouds
3:55 PM 82.4 °F - N/A% 30.12 in 10.0 mi Calm Calm - N/A   Scattered Clouds
4:15 PM 82.4 °F - N/A% 30.11 in 10.0 mi Calm Calm - N/A   Scattered Clouds
4:35 PM 82.4 °F - N/A% 30.11 in 10.0 mi Calm Calm - N/A   Clear
4:55 PM 84.2 °F - N/A% 30.11 in 10.0 mi NE 3.5 mph - N/A   Clear
5:15 PM 82.4 °F - N/A% 30.11 in 10.0 mi NNE 4.6 mph - N/A   Scattered Clouds
5:35 PM 82.4 °F - N/A% 30.11 in 10.0 mi NNE 3.5 mph - N/A   Scattered Clouds
5:55 PM 82.4 °F - N/A% 30.11 in 10.0 mi Calm Calm - N/A   Clear
6:15 PM 82.4 °F - N/A% 30.11 in 10.0 mi Calm Calm - N/A   Scattered Clouds
6:35 PM 80.6 °F - N/A% 30.11 in 10.0 mi Calm Calm - N/A   Scattered Clouds
6:55 PM 78.8 °F - N/A% 30.12 in 10.0 mi Calm Calm - N/A   Clear
7:15 PM 77.0 °F - N/A% 30.12 in 10.0 mi Calm Calm - N/A   Clear
7:35 PM 73.4 °F - N/A% 30.12 in 10.0 mi Calm Calm - N/A   Clear
7:55 PM 73.4 °F - N/A% 30.12 in 10.0 mi Calm Calm - N/A   Clear
8:15 PM 73.4 °F - N/A% 30.13 in 10.0 mi Calm Calm - N/A   Clear
8:35 PM 69.8 °F - N/A% 30.13 in 10.0 mi Calm Calm - N/A   Clear
8:55 PM 69.8 °F - N/A% 30.13 in 10.0 mi Calm Calm - N/A   Clear
9:15 PM 69.8 °F - N/A% 30.14 in 10.0 mi Calm Calm - N/A   Clear
9:35 PM 69.8 °F - N/A% 30.14 in 10.0 mi Calm Calm - N/A   Clear
9:55 PM 69.8 °F - N/A% 30.15 in 10.0 mi Calm Calm - N/A   Clear
10:15 PM 69.8 °F - N/A% 30.15 in 10.0 mi Calm Calm - N/A   Clear
10:35 PM 69.8 °F - N/A% 30.15 in 10.0 mi Calm Calm - N/A   Scattered Clouds
10:55 PM 69.8 °F - N/A% 30.15 in 10.0 mi Calm Calm - N/A   Clear
11:15 PM 69.8 °F - N/A% 30.15 in 10.0 mi Calm Calm - N/A   Scattered Clouds
11:35 PM 68.0 °F - N/A% 30.15 in 10.0 mi Calm Calm - N/A   Clear
11:55 PM 68.0 °F - N/A% 30.15 in 10.0 mi Calm Calm - N/A   Clear